Simultaneous Nadir Overpasses (SNOs) Predictions

Prediction of SNOs between GOES-15 and LANDSAT-8 Satellite Orbit:

Table of predicted SNOs for the next 14.0 days since TLE Epoch: 7/6/2024
Index Date Time (GOES-15) GOES-15 Lat,Lon LANDSAT-8 Lat,Lon Distance(km) Time Diff (sec)
1 07/06/2024 06:16:49 -0.03, 61.14 0.38, 59.09 232.89 80
2 07/08/2024 06:02:00 -0.05, 61.14 -0.23, 62.05 102.92 80
3 07/08/2024 18:26:03 0.01, 61.20 -0.90, 56.86 492.66 80
4 07/10/2024 05:49:50 -0.06, 61.14 -0.87, 65.00 438.98 80
5 07/10/2024 18:13:53 0.02, 61.20 -0.26, 59.82 156.50 80
6 07/12/2024 17:59:03 0.03, 61.20 0.40, 62.77 179.62 80
7 07/13/2024 06:22:58 0.01, 61.14 0.75, 57.62 399.21 80
8 07/15/2024 06:10:47 0.00, 61.14 0.12, 60.58 63.47 80
9 07/17/2024 05:55:56 -0.00, 61.15 -0.52, 63.54 271.54 80
10 07/17/2024 18:19:59 -0.04, 61.22 -0.65, 58.37 324.64 80
11 07/19/2024 18:05:08 -0.03, 61.24 0.02, 61.32 10.10 80
